Weather History for Lafayette, IN

Change the Weather History Date:

Sunday, October 7, 2012

  Actual Average Record
Temperature  
Mean Temperature 39 °F 57 °F  
Max Temperature 47 °F 69 °F 91 °F (2007)
Min Temperature 31 °F 46 °F 29 °F (1964)
Degree Days  
Heating Degree Days 26 9  
Month to date heating degree days 94 54  
Since 1 July heating degree days 235 139  
Cooling Degree Days 0 1  
Month to date cooling degree days 0 8  
Year to date cooling degree days 1179 973  
Moisture  
Dew Point 32 °F    
Average Humidity 73    
Maximum Humidity 100    
Minimum Humidity 45    
Precipitation  
Precipitation 0.00 in 0.10 in 0.83 in (2008)
Month to date precipitation 1.16 0.70  
Year to date precipitation 22.50 28.91  
Sea Level Pressure  
Sea Level Pressure 30.19 in    
Wind  
Wind Speed 4 mph (WNW)    
Max Wind Speed 14 mph    
Max Gust Speed 16 mph    
Visibility 10 miles    
Events      
T = Trace of Precipitation, MM = Missing Value Source: NWS Daily Summary

Daily Weather History Graph

Daily Weather History Graph

Search for Another Location

Airport:

Trip Planner

Search our weather history database for the weather conditions in past years. The results will help you decide how hot, cold, wet, or windy it might be!

Date:

Astronomy

Oct. 07, 2012 Rise Set
Actual Time 7:50 AM EDT 7:19 PM EDT
Civil Twilight 7:23 AM EDT 7:46 PM EDT
Nautical Twilight 6:51 AM EDT 8:18 PM EDT
Astronomical Twilight 6:20 AM EDT 8:49 PM EDT
Moon No Moon Rise 2:28 PM EDT (10/7)
Length of Visible Light 12h 23m
Length of Day
11h 28m
Waning Gibbous, 56% of the Moon is Illuminated
Oct 7
Waning Gibbous
Oct 8
Last Quarter
Oct 15
New
Oct 21
First Quarter
Oct 29
Full

Hourly Weather History & Observations

Time (EDT) Temp. Windchill Dew Point Humidity Pressure Visibility Wind Dir Wind Speed Gust Speed Precip Events Conditions
12:54 AM 37.9 °F 33.5 °F 30.9 °F 76% 30.18 in 10.0 mi NW 5.8 mph - N/A   Clear
1:54 AM 35.1 °F - 32.0 °F 89% 30.17 in 10.0 mi Calm Calm - N/A   Clear
2:54 AM 34.0 °F - 32.0 °F 92% 30.17 in 10.0 mi Calm Calm - N/A   Clear
3:54 AM 36.0 °F 33.3 °F 34.0 °F 93% 30.17 in 10.0 mi West 3.5 mph - N/A   Clear
4:54 AM 36.0 °F 33.3 °F 34.0 °F 93% 30.17 in 10.0 mi West 3.5 mph - N/A   Clear
5:54 AM 36.0 °F 33.3 °F 34.0 °F 93% 30.17 in 10.0 mi West 3.5 mph - N/A   Clear
6:54 AM 36.0 °F - 35.1 °F 97% 30.17 in 10.0 mi Calm Calm - N/A   Overcast
7:54 AM 36.0 °F 33.3 °F 34.0 °F 93% 30.17 in 10.0 mi WNW 3.5 mph - N/A   Partly Cloudy
8:54 AM 37.0 °F 32.4 °F 35.1 °F 93% 30.19 in 10.0 mi West 5.8 mph - N/A   Overcast
9:54 AM 39.0 °F 34.8 °F 35.1 °F 86% 30.20 in 10.0 mi West 5.8 mph - N/A   Overcast
10:54 AM 42.1 °F 37.7 °F 34.0 °F 73% 30.21 in 10.0 mi West 6.9 mph - N/A   Overcast
11:54 AM 46.0 °F 43.1 °F 30.9 °F 56% 30.21 in 10.0 mi WNW 5.8 mph - N/A   Overcast
12:54 PM 45.0 °F 40.6 °F 28.0 °F 52% 30.21 in 10.0 mi West 8.1 mph 16.1 mph N/A   Overcast
1:54 PM 46.0 °F 40.6 °F 28.0 °F 50% 30.21 in 10.0 mi WNW 11.5 mph - N/A   Overcast
2:54 PM 46.0 °F 40.6 °F 28.9 °F 51% 30.18 in 10.0 mi NW 11.5 mph - N/A   Overcast
3:54 PM 46.0 °F 41.4 °F 28.0 °F 50% 30.18 in 10.0 mi WNW 9.2 mph - N/A   Overcast
4:54 PM 46.0 °F 41.4 °F 27.0 °F 47% 30.17 in 10.0 mi WNW 9.2 mph - N/A   Overcast
5:54 PM 46.0 °F 41.9 °F 28.0 °F 50% 30.18 in 10.0 mi WNW 8.1 mph - N/A   Overcast
6:54 PM 46.0 °F - 28.9 °F 51% 30.18 in 10.0 mi Calm Calm - N/A   Overcast
7:54 PM 41.0 °F - 33.1 °F 73% 30.19 in 10.0 mi Calm Calm - N/A   Overcast
8:54 PM 37.9 °F - 33.1 °F 83% 30.20 in 10.0 mi Calm Calm - N/A   Overcast
9:54 PM 36.0 °F - 32.0 °F 86% 30.20 in 10.0 mi Calm Calm - N/A   Clear
10:54 PM 34.0 °F - 30.9 °F 89% 30.20 in 10.0 mi Calm Calm - N/A   Clear
11:54 PM 33.1 °F - 30.9 °F 92% 30.20 in 10.0 mi Calm Calm - N/A   Clear